| time (UTC) | temp C | wind direction | speed KPH | gust KPH | rain 1hr cm | rain 24hr cm | rain mn cm | humidity % | barometer mb |
| 20260504151100 | 17 | 360 | 16.1 | 37.0 | 0.00 | 0.08 | 0.00 | 64 | 1008.9 |
| 20260504150600 | 16 | 232 | 12.9 | 30.6 | 0.00 | 0.08 | 0.00 | 66 | 1008.8 |
| 20260504150113 | 16 | 212 | 17.7 | 30.6 | 0.00 | 0.08 | 0.00 | 64 | 1008.8 |
| 20260504141056 | 15 | 188 | 17.7 | 33.8 | 0.00 | 0.08 | 0.00 | 65 | 1009.2 |
| 20260504140556 | 15 | 191 | 16.1 | 30.6 | 0.00 | 0.08 | 0.00 | 66 | 1009.2 |
| 20260504130556 | 13 | 186 | 8.0 | 29.0 | 0.00 | 0.08 | 0.00 | 68 | 1009.6 |
| 20260504110600 | 8 | 228 | 6.4 | 14.5 | 0.00 | 0.08 | 0.00 | 73 | 1009.5 |
| 20260504100604 | 8 | 215 | 9.7 | 19.3 | 0.00 | 0.08 | 0.00 | 71 | 1009.5 |
| 20260504100115 | 8 | 221 | 6.4 | 16.1 | 0.00 | 0.08 | 0.00 | 71 | 1009.6 |
| 20260504090114 | 8 | 229 | 9.7 | 16.1 | 0.00 | 0.08 | 0.00 | 70 | 1009.9 |
| 20260504081557 | 9 | 217 | 6.4 | 17.7 | 0.00 | 0.08 | 0.00 | 69 | 1010.4 |
| 20260504081100 | 9 | 119 | 4.8 | 17.7 | 0.00 | 0.08 | 0.00 | 69 | 1010.6 |
| 20260504080603 | 9 | 117 | 8.0 | 17.7 | 0.00 | 0.08 | 0.00 | 69 | 1010.6 |
| 20260504050600 | 10 | 111 | 4.8 | 12.9 | 0.00 | 0.08 | 0.00 | 71 | 1012.2 |
| 20260504050106 | 10 | 107 | 6.4 | 12.9 | 0.00 | 0.08 | 0.00 | 71 | 1012.2 |
| 20260504045600 | 10 | 103 | 4.8 | 12.9 | 0.00 | 0.08 | 0.00 | 72 | 1012.3 |
| 20260504045101 | 10 | 102 | 6.4 | 16.1 | 0.00 | 0.08 | 0.00 | 72 | 1012.3 |
| 20260504044605 | 10 | 110 | 6.4 | 16.1 | 0.00 | 0.08 | 0.00 | 72 | 1012.4 |
| 20260504044102 | 10 | 96 | 4.8 | 14.5 | 0.00 | 0.08 | 0.00 | 72 | 1012.4 |
| 20260504043558 | 10 | 113 | 8.0 | 14.5 | 0.00 | 0.08 | 0.00 | 71 | 1012.4 |
| 20260504043059 | 10 | 94 | 6.4 | 14.5 | 0.00 | 0.08 | 0.00 | 72 | 1012.5 |
| 20260504042600 | 10 | 109 | 6.4 | 14.5 | 0.00 | 0.08 | 0.00 | 72 | 1012.5 |
| 20260504042056 | 10 | 102 | 6.4 | 14.5 | 0.00 | 0.08 | 0.00 | 71 | 1012.6 |
| 20260504041559 | 10 | 111 | 6.4 | 12.9 | 0.00 | 0.08 | 0.00 | 71 | 1012.6 |
| 20260504041056 | 10 | 109 | 4.8 | 11.3 | 0.00 | 0.08 | 0.00 | 71 | 1012.6 |
| 20260504040556 | 10 | 99 | 4.8 | 11.3 | 0.00 | 0.08 | 0.00 | 70 | 1012.8 |
| 20260504040116 | 10 | 89 | 3.2 | 12.9 | 0.00 | 0.08 | 0.00 | 70 | 1012.7 |
| 20260504035556 | 10 | 110 | 4.8 | 12.9 | 0.00 | 0.08 | 0.08 | 70 | 1012.8 |
| 20260504035103 | 10 | 102 | 6.4 | 16.1 | 0.00 | 0.08 | 0.08 | 70 | 1012.8 |
| 20260504034634 | 10 | 113 | 4.8 | 16.1 | 0.00 | 0.08 | 0.08 | 71 | 1012.8 |
| 20260504034103 | 10 | 96 | 8.0 | 16.1 | 0.00 | 0.08 | 0.08 | 71 | 1013.0 |
| 20260504033557 | 10 | 103 | 6.4 | 16.1 | 0.00 | 0.08 | 0.08 | 71 | 1012.9 |
| 20260504033100 | 10 | 96 | 6.4 | 16.1 | 0.00 | 0.08 | 0.08 | 72 | 1013.0 |
| 20260504032557 | 9 | 105 | 8.0 | 14.5 | 0.00 | 0.08 | 0.08 | 72 | 1013.1 |
| 20260504032059 | 9 | 102 | 6.4 | 14.5 | 0.00 | 0.08 | 0.08 | 72 | 1013.0 |
| 20260504031558 | 9 | 110 | 6.4 | 14.5 | 0.00 | 0.08 | 0.08 | 72 | 1013.2 |
| 20260504031057 | 9 | 106 | 6.4 | 12.9 | 0.00 | 0.08 | 0.08 | 73 | 1013.2 |
| 20260504030556 | 9 | 97 | 8.0 | 12.9 | 0.00 | 0.08 | 0.08 | 73 | 1013.2 |
| 20260504030120 | 9 | 107 | 6.4 | 12.9 | 0.00 | 0.08 | 0.08 | 74 | 1013.1 |
| 20260504025556 | 9 | 107 | 4.8 | 14.5 | 0.00 | 0.08 | 0.08 | 74 | 1013.1 |
| 20260504025057 | 9 | 107 | 6.4 | 14.5 | 0.00 | 0.08 | 0.08 | 74 | 1013.3 |
| 20260504024602 | 9 | 100 | 4.8 | 12.9 | 0.00 | 0.08 | 0.08 | 73 | 1013.3 |
| 20260504024056 | 9 | 109 | 4.8 | 11.3 | 0.00 | 0.08 | 0.08 | 73 | 1013.2 |
| 20260504023557 | 9 | 86 | 4.8 | 14.5 | 0.00 | 0.08 | 0.08 | 73 | 1013.2 |
| 20260504023100 | 9 | 98 | 4.8 | 14.5 | 0.00 | 0.08 | 0.08 | 74 | 1013.2 |
| 20260504022557 | 9 | 82 | 3.2 | 14.5 | 0.00 | 0.08 | 0.08 | 75 | 1013.3 |
| 20260504022056 | 9 | 103 | 3.2 | 14.5 | 0.00 | 0.08 | 0.08 | 75 | 1013.3 |
| 20260504021559 | 8 | 99 | 3.2 | 9.7 | 0.00 | 0.08 | 0.08 | 76 | 1013.3 |
| 20260504021059 | 8 | 74 | 1.6 | 11.3 | 0.00 | 0.08 | 0.08 | 76 | 1013.4 |
| 20260504020559 | 8 | 98 | 3.2 | 11.3 | 0.03 | 0.08 | 0.08 | 77 | 1013.4 |
| 20260504020107 | 8 | 98 | 4.8 | 12.9 | 0.03 | 0.08 | 0.08 | 79 | 1013.4 |
| 20260504015557 | 8 | 90 | 4.8 | 12.9 | 0.05 | 0.08 | 0.08 | 80 | 1013.5 |
| 20260504015100 | 8 | 108 | 3.2 | 6.4 | 0.05 | 0.08 | 0.08 | 80 | 1013.5 |
| 20260504014608 | 8 | 105 | 3.2 | 6.4 | 0.08 | 0.08 | 0.08 | 81 | 1013.4 |
| 20260504014056 | 8 | 101 | 3.2 | 9.7 | 0.08 | 0.08 | 0.08 | 81 | 1013.3 |
| 20260504013556 | 8 | 98 | 1.6 | 9.7 | 0.08 | 0.08 | 0.08 | 81 | 1013.5 |
| 20260504013058 | 8 | 104 | 3.2 | 9.7 | 0.08 | 0.08 | 0.08 | 81 | 1013.4 |
| 20260504012556 | 8 | 107 | 1.6 | 6.4 | 0.08 | 0.08 | 0.08 | 81 | 1013.3 |
| 20260504012057 | 8 | 0 | 0.0 | 3.2 | 0.08 | 0.08 | 0.08 | 81 | 1013.4 |
| 20260504011557 | 8 | 0 | 0.0 | 3.2 | 0.08 | 0.08 | 0.08 | 80 | 1013.4 |
| 20260504011056 | 8 | 0 | 0.0 | 9.7 | 0.08 | 0.08 | 0.08 | 79 | 1013.5 |
| 20260504010556 | 8 | 0 | 1.6 | 9.7 | 0.05 | 0.05 | 0.05 | 78 | 1013.3 |
| 20260504010059 | 8 | 170 | 0.0 | 12.9 | 0.05 | 0.05 | 0.05 | 77 | 1013.3 |
| 20260504005557 | 9 | 177 | 3.2 | 12.9 | 0.03 | 0.03 | 0.03 | 76 | 1013.4 |
| 20260504005105 | 9 | 150 | 3.2 | 9.7 | 0.03 | 0.03 | 0.03 | 74 | 1013.7 |
| 20260504004604 | 9 | 0 | 3.2 | 8.0 | 0.00 | 0.00 | 0.00 | 73 | 1013.9 |
| 20260504004057 | 9 | 206 | 3.2 | 6.4 | 0.00 | 0.00 | 0.00 | 72 | 1013.9 |
| 20260504003601 | 9 | 179 | 1.6 | 6.4 | 0.00 | 0.00 | 0.00 | 72 | 1013.8 |
| 20260504003105 | 9 | 167 | 0.0 | 6.4 | 0.00 | 0.00 | 0.00 | 71 | 1013.7 |
| 20260504002559 | 9 | 158 | 0.0 | 11.3 | 0.00 | 0.00 | 0.00 | 72 | 1013.7 |
| 20260504002056 | 10 | 153 | 4.8 | 11.3 | 0.00 | 0.00 | 0.00 | 72 | 1013.5 |
| 20260504001606 | 10 | 109 | 3.2 | 6.4 | 0.00 | 0.00 | 0.00 | 72 | 1013.6 |
| 20260504001056 | 10 | 0 | 0.0 | 3.2 | 0.00 | 0.00 | 0.00 | 72 | 1013.7 |
| 20260504000556 | 10 | 59 | 0.0 | 3.2 | 0.00 | 0.00 | 0.00 | 72 | 1013.6 |
| 20260504000100 | 10 | 0 | 0.0 | 4.8 | 0.00 | 0.00 | 0.00 | 72 | 1013.5 |
| 20260503235558 | 10 | 0 | 1.6 | 4.8 | 0.00 | 0.00 | 0.00 | 72 | 1013.5 |
| 20260503235058 | 10 | 59 | 1.6 | 4.8 | 0.00 | 0.00 | 0.00 | 71 | 1013.6 |
| 20260503234559 | 10 | 0 | 0.0 | 3.2 | 0.00 | 0.00 | 0.00 | 71 | 1013.7 |
| 20260503234057 | 10 | 0 | 0.0 | 1.6 | 0.00 | 0.00 | 0.00 | 70 | 1013.8 |
| 20260503233557 | 10 | 0 | 0.0 | 1.6 | 0.00 | 0.00 | 0.00 | 70 | 1013.6 |
| 20260503233103 | 10 | 0 | 0.0 | 3.2 | 0.00 | 0.00 | 0.00 | 71 | 1013.8 |
| 20260503232601 | 10 | 0 | 0.0 | 4.8 | 0.00 | 0.00 | 0.00 | 71 | 1013.9 |
| 20260503232059 | 10 | 238 | 0.0 | 4.8 | 0.00 | 0.00 | 0.00 | 70 | 1013.8 |
| 20260503231559 | 10 | 0 | 0.0 | 3.2 | 0.00 | 0.00 | 0.00 | 69 | 1014.1 |
| 20260503231057 | 10 | 0 | 0.0 | 12.9 | 0.00 | 0.00 | 0.00 | 69 | 1014.2 |
| 20260503230556 | 10 | 240 | 0.0 | 14.5 | 0.00 | 0.00 | 0.00 | 71 | 1014.6 |
| 20260503225610 | 10 | 235 | 4.8 | 17.7 | 0.00 | 0.00 | 0.00 | 70 | 1015.2 |
| 20260503225100 | 10 | 269 | 6.4 | 27.4 | 0.00 | 0.00 | 0.00 | 69 | 1015.5 |
| 20260503224559 | 10 | 268 | 9.7 | 29.0 | 0.00 | 0.00 | 0.00 | 67 | 1015.4 |
| 20260503224058 | 11 | 232 | 14.5 | 30.6 | 0.00 | 0.00 | 0.00 | 64 | 1015.4 |
| 20260503223557 | 11 | 276 | 16.1 | 35.4 | 0.00 | 0.00 | 0.00 | 62 | 1015.3 |
| 20260503223058 | 11 | 244 | 16.1 | 38.6 | 0.00 | 0.00 | 0.00 | 60 | 1015.2 |
| 20260503222559 | 11 | 263 | 16.1 | 38.6 | 0.00 | 0.00 | 0.00 | 60 | 1015.1 |
| 20260503222100 | 12 | 260 | 19.3 | 38.6 | 0.00 | 0.00 | 0.00 | 58 | 1015.0 |
| 20260503221603 | 12 | 277 | 19.3 | 38.6 | 0.00 | 0.00 | 0.00 | 57 | 1015.0 |
| 20260503221058 | 12 | 241 | 19.3 | 38.6 | 0.00 | 0.00 | 0.00 | 54 | 1014.9 |
| 20260503220558 | 13 | 269 | 17.7 | 38.6 | 0.00 | 0.00 | 0.00 | 52 | 1014.7 |
| 20260503220100 | 13 | 219 | 20.9 | 38.6 | 0.00 | 0.00 | 0.00 | 51 | 1014.5 |
| 20260503215556 | 13 | 233 | 17.7 | 37.0 | 0.00 | 0.00 | 0.00 | 51 | 1014.4 |
| 20260503215057 | 13 | 261 | 20.9 | 35.4 | 0.00 | 0.00 | 0.00 | 48 | 1014.4 |
| 20260503214604 | 14 | 238 | 14.5 | 30.6 | 0.00 | 0.00 | 0.00 | 46 | 1014.3 |
| 20260503214057 | 14 | 219 | 12.9 | 30.6 | 0.00 | 0.00 | 0.00 | 46 | 1014.3 |
| 20260503213556 | 14 | 214 | 12.9 | 30.6 | 0.00 | 0.00 | 0.00 | 46 | 1014.3 |
| 20260503213103 | 14 | 219 | 16.1 | 33.8 | 0.00 | 0.00 | 0.00 | 46 | 1014.5 |
| 20260503212557 | 14 | 234 | 16.1 | 33.8 | 0.00 | 0.00 | 0.00 | 46 | 1014.4 |
| 20260503212059 | 14 | 228 | 14.5 | 27.4 | 0.00 | 0.00 | 0.00 | 46 | 1014.4 |
| 20260503211602 | 15 | 288 | 12.9 | 27.4 | 0.00 | 0.00 | 0.00 | 47 | 1014.5 |
| 20260503211058 | 15 | 223 | 12.9 | 27.4 | 0.00 | 0.00 | 0.00 | 46 | 1014.5 |
| 20260503210559 | 15 | 270 | 9.7 | 27.4 | 0.00 | 0.00 | 0.00 | 47 | 1014.6 |
| 20260503210101 | 15 | 257 | 12.9 | 25.7 | 0.00 | 0.00 | 0.00 | 45 | 1014.5 |
| 20260503205556 | 15 | 256 | 12.9 | 27.4 | 0.00 | 0.00 | 0.00 | 47 | 1014.6 |
| 20260503205057 | 15 | 213 | 16.1 | 27.4 | 0.00 | 0.00 | 0.00 | 46 | 1014.7 |
| 20260503204605 | 15 | 263 | 11.3 | 29.0 | 0.00 | 0.00 | 0.00 | 46 | 1014.6 |
| 20260503204057 | 15 | 225 | 12.9 | 37.0 | 0.00 | 0.00 | 0.00 | 44 | 1014.7 |
| 20260503203556 | 15 | 233 | 11.3 | 37.0 | 0.00 | 0.00 | 0.00 | 44 | 1014.7 |
| 20260503203103 | 15 | 279 | 16.1 | 37.0 | 0.00 | 0.00 | 0.00 | 44 | 1014.7 |
| 20260503202557 | 15 | 209 | 19.3 | 32.2 | 0.00 | 0.00 | 0.00 | 43 | 1014.8 |
| 20260503202059 | 16 | 244 | 11.3 | 33.8 | 0.00 | 0.00 | 0.00 | 46 | 1014.8 |
| 20260503201558 | 16 | 277 | 11.3 | 33.8 | 0.00 | 0.00 | 0.00 | 45 | 1015.0 |
| 20260503201056 | 16 | 246 | 12.9 | 33.8 | 0.00 | 0.00 | 0.00 | 47 | 1014.9 |
| 20260503200558 | 16 | 251 | 11.3 | 29.0 | 0.00 | 0.00 | 0.00 | 47 | 1014.9 |
| 20260503200058 | 16 | 226 | 12.9 | 35.4 | 0.00 | 0.00 | 0.00 | 46 | 1015.0 |
| 20260503195557 | 15 | 188 | 17.7 | 35.4 | 0.00 | 0.00 | 0.00 | 45 | 1015.0 |
| 20260503195059 | 16 | 231 | 11.3 | 33.8 | 0.00 | 0.00 | 0.00 | 46 | 1015.0 |
| 20260503194600 | 16 | 225 | 17.7 | 33.8 | 0.00 | 0.00 | 0.00 | 45 | 1015.2 |
| 20260503194058 | 16 | 239 | 16.1 | 29.0 | 0.00 | 0.00 | 0.00 | 46 | 1015.1 |
| 20260503193601 | 16 | 278 | 12.9 | 32.2 | 0.00 | 0.00 | 0.00 | 46 | 1015.4 |
| 20260503193111 | 15 | 263 | 17.7 | 32.2 | 0.00 | 0.00 | 0.00 | 46 | 1015.5 |
| 20260503192600 | 15 | 227 | 11.3 | 27.4 | 0.00 | 0.00 | 0.00 | 45 | 1015.5 |
| 20260503192101 | 16 | 259 | 14.5 | 27.4 | 0.00 | 0.00 | 0.00 | 46 | 1015.6 |
| 20260503191600 | 15 | 210 | 11.3 | 32.2 | 0.00 | 0.00 | 0.00 | 46 | 1015.7 |
| 20260503191103 | 15 | 315 | 11.3 | 32.2 | 0.00 | 0.00 | 0.00 | 46 | 1015.8 |
| 20260503190601 | 15 | 219 | 12.9 | 30.6 | 0.00 | 0.00 | 0.00 | 45 | 1015.8 |
| 20260503190108 | 15 | 228 | 12.9 | 30.6 | 0.00 | 0.00 | 0.00 | 45 | 1016.0 |
| 20260503185600 | 15 | 244 | 16.1 | 30.6 | 0.00 | 0.00 | 0.00 | 44 | 1016.1 |
| 20260503185100 | 15 | 279 | 12.9 | 29.0 | 0.00 | 0.00 | 0.00 | 46 | 1016.1 |
| 20260503184603 | 15 | 250 | 14.5 | 29.0 | 0.00 | 0.00 | 0.00 | 47 | 1016.2 |
| 20260503184101 | 15 | 266 | 11.3 | 30.6 | 0.00 | 0.00 | 0.00 | 46 | 1016.3 |
| 20260503183600 | 15 | 261 | 16.1 | 32.2 | 0.00 | 0.00 | 0.00 | 46 | 1016.3 |
| 20260503183114 | 15 | 179 | 14.5 | 32.2 | 0.00 | 0.00 | 0.00 | 45 | 1016.5 |
| 20260503182601 | 15 | 220 | 17.7 | 30.6 | 0.00 | 0.00 | 0.00 | 44 | 1016.5 |
| 20260503182104 | 15 | 209 | 14.5 | 30.6 | 0.00 | 0.00 | 0.00 | 47 | 1016.7 |
| 20260503181559 | 15 | 224 | 11.3 | 29.0 | 0.00 | 0.00 | 0.00 | 47 | 1016.8 |
| 20260503181101 | 15 | 254 | 14.5 | 32.2 | 0.00 | 0.00 | 0.00 | 46 | 1016.8 |
| 20260503180601 | 15 | 244 | 16.1 | 32.2 | 0.00 | 0.00 | 0.00 | 48 | 1017.0 |
| 20260503180100 | 15 | 192 | 12.9 | 32.2 | 0.00 | 0.00 | 0.00 | 46 | 1017.0 |
| 20260503175559 | 14 | 257 | 12.9 | 33.8 | 0.00 | 0.00 | 0.00 | 47 | 1017.0 |
| 20260503175101 | 15 | 196 | 16.1 | 33.8 | 0.00 | 0.00 | 0.00 | 45 | 1017.2 |
| 20260503174600 | 15 | 213 | 14.5 | 27.4 | 0.00 | 0.00 | 0.00 | 47 | 1017.3 |
| 20260503174102 | 15 | 210 | 12.9 | 32.2 | 0.00 | 0.00 | 0.00 | 49 | 1017.3 |
| 20260503173604 | 15 | 265 | 11.3 | 32.2 | 0.00 | 0.00 | 0.00 | 48 | 1017.5 |
| 20260503173115 | 15 | 259 | 12.9 | 32.2 | 0.00 | 0.00 | 0.00 | 48 | 1017.4 |
| 20260503172600 | 14 | 226 | 11.3 | 29.0 | 0.00 | 0.00 | 0.00 | 49 | 1017.3 |
| 20260503172101 | 15 | 263 | 12.9 | 29.0 | 0.00 | 0.00 | 0.00 | 47 | 1017.5 |
| 20260503171601 | 15 | 254 | 12.9 | 29.0 | 0.00 | 0.00 | 0.00 | 49 | 1017.5 |
| 20260503171101 | 14 | 221 | 16.1 | 27.4 | 0.00 | 0.00 | 0.00 | 48 | 1017.5 |
| 20260503170603 | 14 | 273 | 11.3 | 27.4 | 0.00 | 0.00 | 0.00 | 46 | 1017.6 |